Time,TemperatureF,DewpointF,PressureIn,WindDirection,WindDirectionDegrees,WindSpeedMPH,WindSpeedGustMPH,Humidity,HourlyPrecipIn,Conditions,Clouds,dailyrainin,SoftwareType,DateUTC
2013-10-16 00:00:00,52.0,50.0,-100.00,NE,43,0.0,1.0,91,0.00,,,-99.99,,2013-10-16 04:00:00,
2013-10-16 00:44:00,52.0,50.0,-100.00,NE,43,0.0,1.0,91,0.00,,,-99.99,,2013-10-16 04:44:00,
2013-10-16 00:54:00,52.0,50.0,-100.00,NE,43,0.0,1.0,91,0.00,,,-99.99,,2013-10-16 04:54:00,
2013-10-16 01:00:00,56.0,53.0,-100.00,NNE,16,0.0,2.0,92,0.00,,,-99.99,,2013-10-16 05:00:00,
2013-10-16 01:43:00,56.0,53.0,-100.00,NNE,16,0.0,2.0,92,0.00,,,-99.99,,2013-10-16 05:43:00,
2013-10-16 01:53:00,56.0,53.0,-100.00,NNE,16,0.0,2.0,92,0.00,,,-99.99,,2013-10-16 05:53:00,
2013-10-16 02:00:00,54.0,52.0,-100.00,North,354,0.0,3.0,92,0.00,,,-99.99,,2013-10-16 06:00:00,
2013-10-16 02:43:00,54.0,52.0,-100.00,North,354,0.0,3.0,92,0.00,,,-99.99,,2013-10-16 06:43:00,
2013-10-16 02:52:00,54.0,52.0,-100.00,North,354,0.0,3.0,92,0.00,,,-99.99,,2013-10-16 06:52:00,
2013-10-16 03:00:00,55.0,53.0,-100.00,ESE,117,0.0,5.0,93,0.00,,,-99.99,,2013-10-16 07:00:00,
2013-10-16 03:42:00,55.0,53.0,-100.00,ESE,117,0.0,5.0,93,0.00,,,-99.99,,2013-10-16 07:42:00,
2013-10-16 03:53:00,55.0,53.0,-100.00,ESE,117,0.0,5.0,93,0.00,,,-99.99,,2013-10-16 07:53:00,
2013-10-16 05:00:00,56.0,55.0,-100.00,NE,42,0.0,4.0,95,0.00,,,-99.99,,2013-10-16 09:00:00,
2013-10-16 05:43:00,56.0,55.0,-100.00,NE,42,0.0,4.0,95,0.00,,,-99.99,,2013-10-16 09:43:00,
2013-10-16 05:54:00,56.0,55.0,-100.00,NE,42,0.0,4.0,95,0.00,,,-99.99,,2013-10-16 09:54:00,
2013-10-16 06:00:00,57.0,56.0,-100.00,North,0,0.0,3.0,95,0.00,,,-99.99,,2013-10-16 10:00:00,
2013-10-16 06:42:00,57.0,56.0,-100.00,North,0,0.0,3.0,95,0.00,,,-99.99,,2013-10-16 10:42:00,
2013-10-16 06:53:00,57.0,56.0,-100.00,North,0,0.0,3.0,95,0.00,,,-99.99,,2013-10-16 10:53:00,
2013-10-16 07:00:00,57.0,56.0,-100.00,NNE,17,0.0,3.0,96,0.00,,,-99.99,,2013-10-16 11:00:00,
2013-10-16 07:42:00,57.0,56.0,-100.00,NNE,17,0.0,3.0,96,0.00,,,-99.99,,2013-10-16 11:42:00,
2013-10-16 07:52:00,57.0,56.0,-100.00,NNE,17,0.0,3.0,96,0.00,,,-99.99,,2013-10-16 11:52:00,
2013-10-16 08:00:00,58.0,56.0,-100.00,ENE,68,2.0,4.0,96,0.00,,,-99.99,,2013-10-16 12:00:00,
2013-10-16 08:43:00,58.0,56.0,-100.00,ENE,68,2.0,4.0,96,0.00,,,-99.99,,2013-10-16 12:43:00,
2013-10-16 08:52:00,58.0,56.0,-100.00,ENE,68,2.0,4.0,96,0.00,,,-99.99,,2013-10-16 12:52:00,
2013-10-16 09:00:00,59.0,57.0,-100.00,NE,39,0.0,4.0,96,0.00,,,-99.99,,2013-10-16 13:00:00,
2013-10-16 09:42:00,59.0,57.0,-100.00,NE,39,0.0,4.0,96,0.00,,,-99.99,,2013-10-16 13:42:00,
2013-10-16 09:52:00,59.0,57.0,-100.00,NE,39,0.0,4.0,96,0.00,,,-99.99,,2013-10-16 13:52:00,
2013-10-16 10:00:00,60.0,59.0,-100.00,NNE,32,0.0,5.0,96,0.00,,,-99.99,,2013-10-16 14:00:00,
2013-10-16 10:42:00,60.0,59.0,-100.00,NNE,32,0.0,5.0,96,0.00,,,-99.99,,2013-10-16 14:42:00,
2013-10-16 10:52:00,60.0,59.0,-100.00,NNE,32,0.0,5.0,96,0.00,,,-99.99,,2013-10-16 14:52:00,
2013-10-16 11:00:00,62.0,58.0,-100.00,SSE,149,3.0,5.0,86,0.00,,,-99.99,,2013-10-16 15:00:00,
2013-10-16 11:43:00,62.0,58.0,-100.00,SSE,149,3.0,5.0,86,0.00,,,-99.99,,2013-10-16 15:43:00,
2013-10-16 11:53:00,62.0,58.0,-100.00,SSE,149,3.0,5.0,86,0.00,,,-99.99,,2013-10-16 15:53:00,
2013-10-16 12:00:00,66.0,58.0,-100.00,West,276,1.0,5.0,77,0.00,,,-99.99,,2013-10-16 16:00:00,
2013-10-16 12:42:00,66.0,58.0,-100.00,West,276,1.0,5.0,77,0.00,,,-99.99,,2013-10-16 16:42:00,
2013-10-16 12:53:00,66.0,58.0,-100.00,West,276,1.0,5.0,77,0.00,,,-99.99,,2013-10-16 16:53:00,
2013-10-16 13:00:00,68.0,58.0,-100.00,North,352,4.0,6.0,72,0.00,,,-99.99,,2013-10-16 17:00:00,
2013-10-16 13:43:00,68.0,58.0,-100.00,North,352,4.0,6.0,72,0.00,,,-99.99,,2013-10-16 17:43:00,
2013-10-16 13:52:00,68.0,58.0,-100.00,North,352,4.0,6.0,72,0.00,,,-99.99,,2013-10-16 17:52:00,
2013-10-16 14:00:00,68.0,59.0,-100.00,West,272,5.0,7.0,74,0.00,,,-99.99,,2013-10-16 18:00:00,
2013-10-16 14:42:00,68.0,59.0,-100.00,West,272,5.0,7.0,74,0.00,,,-99.99,,2013-10-16 18:42:00,
2013-10-16 14:52:00,68.0,59.0,-100.00,West,272,5.0,7.0,74,0.00,,,-99.99,,2013-10-16 18:52:00,
2013-10-16 15:00:00,69.0,60.0,-100.00,NNW,347,3.0,7.0,72,0.00,,,-99.99,,2013-10-16 19:00:00,
2013-10-16 15:42:00,69.0,60.0,-100.00,NNW,347,3.0,7.0,72,0.00,,,-99.99,,2013-10-16 19:42:00,
2013-10-16 15:52:00,69.0,60.0,-100.00,NNW,347,3.0,7.0,72,0.00,,,-99.99,,2013-10-16 19:52:00,
2013-10-16 16:00:00,69.0,59.0,-100.00,WNW,300,1.0,7.0,71,0.00,,,-99.99,,2013-10-16 20:00:00,
2013-10-16 16:43:00,69.0,59.0,-100.00,WNW,300,1.0,7.0,71,0.00,,,-99.99,,2013-10-16 20:43:00,
2013-10-16 16:52:00,69.0,59.0,-100.00,WNW,300,1.0,7.0,71,0.00,,,-99.99,,2013-10-16 20:52:00,
2013-10-16 17:00:00,67.0,58.0,-100.00,WSW,239,0.0,5.0,73,0.00,,,-99.99,,2013-10-16 21:00:00,
2013-10-16 17:44:00,67.0,58.0,-100.00,WSW,239,0.0,5.0,73,0.00,,,-99.99,,2013-10-16 21:44:00,
2013-10-16 17:54:00,67.0,58.0,-100.00,WSW,239,0.0,5.0,73,0.00,,,-99.99,,2013-10-16 21:54:00,
2013-10-16 18:00:00,65.0,59.0,-100.00,South,185,2.0,5.0,80,0.00,,,-99.99,,2013-10-16 22:00:00,
2013-10-16 18:42:00,65.0,59.0,-100.00,South,185,2.0,5.0,80,0.00,,,-99.99,,2013-10-16 22:42:00,
2013-10-16 18:54:00,65.0,59.0,-100.00,South,185,2.0,5.0,80,0.00,,,-99.99,,2013-10-16 22:54:00,
2013-10-16 19:00:00,64.0,59.0,-100.00,South,178,2.0,4.0,83,0.00,,,-99.99,,2013-10-16 23:00:00,
2013-10-16 19:42:00,64.0,59.0,-100.00,South,178,2.0,4.0,83,0.00,,,-99.99,,2013-10-16 23:42:00,
2013-10-16 19:53:00,64.0,59.0,-100.00,South,178,2.0,4.0,83,0.00,,,-99.99,,2013-10-16 23:53:00,
2013-10-16 20:00:00,63.0,59.0,-100.00,SE,139,2.0,6.0,88,0.00,,,-99.99,,2013-10-17 00:00:00,
2013-10-16 20:42:00,63.0,59.0,-100.00,SE,139,2.0,6.0,88,0.00,,,-99.99,,2013-10-17 00:42:00,
2013-10-16 20:52:00,63.0,59.0,-100.00,SE,139,2.0,6.0,88,0.00,,,-99.99,,2013-10-17 00:52:00,
2013-10-16 21:00:00,63.0,60.0,-100.00,South,177,1.0,6.0,91,0.00,,,-99.99,,2013-10-17 01:00:00,
2013-10-16 21:43:00,63.0,60.0,-100.00,South,177,1.0,6.0,91,0.00,,,-99.99,,2013-10-17 01:43:00,
2013-10-16 21:52:00,63.0,60.0,-100.00,South,177,1.0,6.0,91,0.00,,,-99.99,,2013-10-17 01:52:00,
2013-10-16 22:00:00,63.0,60.0,-100.00,South,189,2.0,7.0,91,0.00,,,-99.99,,2013-10-17 02:00:00,
2013-10-16 22:53:00,63.0,60.0,-100.00,South,189,2.0,7.0,91,0.00,,,-99.99,,2013-10-17 02:53:00,
2013-10-16 23:00:00,63.0,60.0,-100.00,SSW,196,2.0,7.0,91,0.00,,,-99.99,,2013-10-17 03:00:00,
2013-10-16 23:45:00,63.0,60.0,-100.00,SSW,196,2.0,7.0,91,0.00,,,-99.99,,2013-10-17 03:45:00,
2013-10-16 23:54:00,63.0,60.0,-100.00,SSW,196,2.0,7.0,91,0.00,,,-99.99,,2013-10-17 03:54:00,